TimeEDT,TemperatureF,Dew PointF,Humidity,Sea Level PressureIn,VisibilityMPH,Wind Direction,Wind SpeedMPH,Gust SpeedMPH,PrecipitationIn,Events,Conditions,WindDirDegrees,DateUTC
12:56 AM,30.9,28.9,92,30.17,5.0,Calm,Calm,-,N/A,,Clear,0,2012-10-08 04:56:00
1:37 AM,32.0,28.4,87,30.15,2.5,Calm,Calm,-,N/A,,Clear,0,2012-10-08 05:37:00
1:44 AM,30.2,28.4,93,30.15,9.0,Calm,Calm,-,N/A,,Clear,0,2012-10-08 05:44:00
1:56 AM,30.9,28.0,89,30.18,9.0,Calm,Calm,-,N/A,,Clear,0,2012-10-08 05:56:00
2:56 AM,30.9,28.9,92,30.19,10.0,SW,3.5,-,N/A,,Clear,230,2012-10-08 06:56:00
3:56 AM,32.0,28.9,88,30.19,10.0,SW,4.6,-,N/A,,Clear,220,2012-10-08 07:56:00
4:56 AM,32.0,28.9,88,30.18,10.0,SSW,3.5,-,N/A,,Clear,210,2012-10-08 08:56:00
5:56 AM,32.0,28.9,88,30.19,10.0,South,5.8,-,N/A,,Clear,190,2012-10-08 09:56:00
6:56 AM,32.0,28.9,88,30.19,10.0,SSW,4.6,-,N/A,,Clear,210,2012-10-08 10:56:00
7:56 AM,33.1,28.9,85,30.21,10.0,SSW,4.6,-,N/A,,Clear,210,2012-10-08 11:56:00
8:56 AM,36.0,30.0,79,30.22,10.0,SW,5.8,-,N/A,,Clear,220,2012-10-08 12:56:00
9:56 AM,41.0,33.1,73,30.22,10.0,WSW,5.8,-,N/A,,Clear,240,2012-10-08 13:56:00
10:56 AM,46.0,30.0,54,30.22,10.0,SW,9.2,-,N/A,,Clear,230,2012-10-08 14:56:00
11:56 AM,48.9,28.0,44,30.22,10.0,SW,10.4,-,N/A,,Clear,230,2012-10-08 15:56:00
12:56 PM,51.1,28.9,43,30.21,10.0,WSW,12.7,17.3,N/A,,Clear,240,2012-10-08 16:56:00
1:56 PM,52.0,28.0,40,30.18,10.0,SW,12.7,18.4,N/A,,Clear,230,2012-10-08 17:56:00
2:56 PM,53.1,28.0,38,30.15,10.0,SSW,10.4,17.3,N/A,,Clear,210,2012-10-08 18:56:00
4:56 PM,53.1,26.1,35,30.13,10.0,South,6.9,-,N/A,,Clear,170,2012-10-08 20:56:00
5:56 PM,52.0,25.0,35,30.12,10.0,South,9.2,-,N/A,,Clear,190,2012-10-08 21:56:00
6:56 PM,48.0,26.1,42,30.11,10.0,South,6.9,-,N/A,,Clear,190,2012-10-08 22:56:00
7:56 PM,45.0,27.0,49,30.12,10.0,South,5.8,-,N/A,,Clear,180,2012-10-08 23:56:00
10:56 PM,39.9,28.9,65,30.13,10.0,SSE,8.1,-,N/A,,Clear,160,2012-10-09 02:56:00
11:56 PM,37.9,28.9,70,30.13,10.0,South,5.8,-,N/A,,Clear,170,2012-10-09 03:56:00